Weather History for Lakeland Region, FL

Change the Weather History Date:

Sunday, July 14, 2013

  Actual Average Record
Temperature  
Mean Temperature 80 °F -  
Max Temperature 89 °F 88 °F 95 °F (2010)
Min Temperature 71 °F 71 °F 71 °F (1990)
Cooling Degree Days 15    
Growing Degree Days 30 (Base 50)    
Moisture  
Dew Point 71 °F    
Average Humidity 90    
Maximum Humidity 100    
Minimum Humidity 55    
Precipitation  
Precipitation 0.00 in - - ()
Sea Level Pressure  
Sea Level Pressure 30.03 in    
Wind  
Wind Speed 5 mph (SE)    
Max Wind Speed 21 mph    
Max Gust Speed 31 mph    
Visibility 10 miles    
Events Rain , Thunderstorm    
Averages and records for this station are not official NWS values.
T = Trace of Precipitation, MM = Missing Value Source: NWS Daily Summary

Daily Weather History Graph

Daily Weather History Graph

Search for Another Location

Airport:

Trip Planner

Search our weather history database for the weather conditions in past years. The results will help you decide how hot, cold, wet, or windy it might be!

Date:

Astronomy

Jul. 14, 2013 Rise Set
Actual Time 6:41 AM EDT 8:26 PM EDT
Civil Twilight 6:14 AM EDT 8:52 PM EDT
Nautical Twilight 5:43 AM EDT 9:24 PM EDT
Astronomical Twilight 5:10 AM EDT 9:57 PM EDT
Moon 12:20 PM EDT (7/14) No Moon Set
Length of Visible Light 14h 37m
Length of Day
13h 45m
Waxing Crescent, 35% of the Moon is Illuminated
Jul 14
Waxing Crescent
Jul 15
First Quarter
Jul 22
Full
Jul 29
Last Quarter
Aug 6
New

Hourly Weather History & Observations

Time (EDT) Temp. Heat Index Dew Point Humidity Pressure Visibility Wind Dir Wind Speed Gust Speed Precip Events Conditions
12:15 AM 73.4 °F - 71.6 °F 94% 30.01 in 10.0 mi SE 3.5 mph - N/A   Mostly Cloudy
12:35 AM 73.4 °F - 71.6 °F 94% 30.01 in 10.0 mi SE 4.6 mph - N/A   Mostly Cloudy
12:55 AM 73.4 °F - 71.6 °F 94% 30.01 in 10.0 mi SSE 5.8 mph - N/A   Scattered Clouds
1:15 AM 73.4 °F - 71.6 °F 94% 30.01 in 10.0 mi SE 6.9 mph - N/A   Clear
1:35 AM 73.4 °F - 71.6 °F 94% 30.01 in 10.0 mi ESE 5.8 mph - N/A   Clear
1:55 AM 73.4 °F - 69.8 °F 88% 30.01 in 10.0 mi ESE 3.5 mph - N/A   Clear
2:15 AM 71.6 °F - 69.8 °F 94% 30.00 in 10.0 mi SE 3.5 mph - N/A   Clear
2:35 AM 71.6 °F - 69.8 °F 94% 30.00 in 10.0 mi ESE 3.5 mph - N/A   Clear
2:55 AM 71.6 °F - 69.8 °F 94% 29.99 in 10.0 mi ESE 4.6 mph - N/A   Clear
3:15 AM 71.6 °F - 69.8 °F 94% 29.99 in 10.0 mi ESE 3.5 mph - N/A   Clear
3:35 AM 71.6 °F - 69.8 °F 94% 29.99 in 10.0 mi ESE 6.9 mph - N/A   Clear
3:55 AM 71.6 °F - 69.8 °F 94% 29.99 in 10.0 mi SE 3.5 mph - N/A   Clear
4:15 AM 71.6 °F - 69.8 °F 94% 29.99 in 10.0 mi ESE 3.5 mph - N/A   Clear
4:35 AM 71.6 °F - 69.8 °F 94% 29.99 in 10.0 mi ESE 4.6 mph - N/A   Clear
4:55 AM 71.6 °F - 69.8 °F 94% 29.99 in 10.0 mi ESE 4.6 mph - N/A   Clear
5:15 AM 71.6 °F - 69.8 °F 94% 30.00 in 10.0 mi ESE 4.6 mph - N/A   Clear
5:35 AM 71.6 °F - 69.8 °F 94% 29.99 in 10.0 mi SE 3.5 mph - N/A   Clear
5:50 AM 71.6 °F - 69.8 °F 94% 30.00 in 10.0 mi SE 5.8 mph - N/A   Clear
5:55 AM 71.6 °F - 69.8 °F 94% 30.00 in 10.0 mi SE 4.6 mph - N/A   Clear
6:15 AM 71.6 °F - 69.8 °F 94% 30.00 in 10.0 mi SE 6.9 mph - N/A   Clear
6:35 AM 71.6 °F - 69.8 °F 94% 30.01 in 10.0 mi SSE 5.8 mph - N/A   Clear
6:50 AM 71.6 °F - 69.8 °F 94% 30.01 in 10.0 mi SSE 4.6 mph - N/A   Mostly Cloudy
7:50 AM 73.4 °F - 71.6 °F 94% 30.02 in 10.0 mi SE 5.8 mph - N/A   Mostly Cloudy
8:20 AM 75.2 °F - 71.6 °F 89% 30.03 in 10.0 mi South 8.1 mph - N/A   Mostly Cloudy
8:50 AM 78.8 °F - 71.6 °F 78% 30.04 in 10.0 mi SSE 8.1 mph - N/A   Mostly Cloudy
9:50 AM 80.6 °F 85.4 °F 73.4 °F 79% 30.05 in 10.0 mi SE 5.8 mph - N/A   Mostly Cloudy
10:50 AM 80.6 °F 85.4 °F 73.4 °F 79% 30.06 in 10.0 mi South 3.5 mph - N/A   Mostly Cloudy
11:50 AM 82.4 °F 87.2 °F 71.6 °F 70% 30.07 in 12.0 mi Calm Calm - N/A   Mostly Cloudy
12:50 PM 87.8 °F 93.8 °F 71.6 °F 58% 30.06 in 12.0 mi Calm Calm - N/A   Mostly Cloudy
1:54 PM 89.6 °F 96.2 °F 71.6 °F 55% 30.04 in 12.0 mi WSW 5.8 mph - N/A   Mostly Cloudy
2:37 PM 78.8 °F - 73.4 °F 83% 30.06 in 0.5 mi SE 20.7 mph - N/A Rain , Thunderstorm Heavy Thunderstorms and Rain
2:58 PM 73.4 °F - 69.8 °F 88% 30.07 in 5.0 mi South 16.1 mph 31.1 mph N/A Rain , Thunderstorm Rain Showers
3:53 PM 71.6 °F - 69.8 °F 94% 30.05 in 7.0 mi Calm Calm - N/A Thunderstorm Thunderstorm
4:51 PM 73.4 °F - 71.6 °F 94% 30.07 in 6.0 mi ENE 5.8 mph - N/A Rain Light Rain
5:52 PM 73.4 °F - 71.6 °F 94% 30.05 in 10.0 mi East 4.6 mph - N/A Rain Light Rain
6:56 PM 75.2 °F - 73.4 °F 94% 30.05 in 10.0 mi Calm Calm - N/A   Overcast
7:25 PM 75.2 °F - 73.4 °F 94% 30.06 in 7.0 mi East 3.5 mph - N/A   Overcast
7:50 PM 75.2 °F - 73.4 °F 94% 30.08 in 7.0 mi SE 3.5 mph - N/A   Overcast
8:52 PM 73.4 °F - 73.4 °F 100% 30.09 in 10.0 mi ESE 5.8 mph - N/A   Overcast
9:50 PM 73.4 °F - 71.6 °F 94% 30.10 in 10.0 mi East 4.6 mph - N/A   Overcast
10:55 PM 71.6 °F - 71.6 °F 100% 30.10 in 10.0 mi SE 3.5 mph - N/A   Overcast
11:15 PM 71.6 °F - 69.8 °F 94% 30.11 in 10.0 mi ESE 3.5 mph - N/A   Overcast
11:35 PM 71.6 °F - 69.8 °F 94% 30.11 in 10.0 mi Calm Calm - N/A   Overcast
11:55 PM 71.6 °F - 69.8 °F 94% 30.10 in - SE 3.5 mph - N/A   Mostly Cloudy